Regional Weather Roundup
Issued by NWS Goodland, KS

Home | Current Version | Previous Version | Text Only | Print | Product List | Glossary Off
Versions: 1 2 3 4 5 6 7 8 9 10 11 12 13 14 15 16 17 18 19 20 21 22 23 24 25 26 27 28 29 30 31 32 33 34 35 36 37 38 39 40 41 42 43 44 45 46 47 48 49 50

000
ASUS43 KGLD 280659
RWRGLD

GOODLAND FORECAST AREA HOURLY WEATHER ROUNDUP
NATIONAL WEATHER SERVICE GOODLAND KS
100 AM MDT FRI AUG 28 2015

...OFFICIAL OBSERVATIONS...

CITY           SKY/WX    TMP DP  RH WIND       PRES   REMARKS
GOODLAND KS    MOCLDY    65  60  84 NW9       30.03R
HILL CITY KS   PTCLDY    75  63  66 SW8       29.91R
IMPERIAL NEB   CLEAR     65  59  81 NW9       30.00S
MCCOOK NEB     CLEAR     69  63  81 NW10      29.93R
AKRON CO       CLEAR     59  57  93 W8        30.11F
BURLINGTON CO  PTCLDY    62  56  80 NW7       30.09R
LIMON CO       CLEAR     57  55  93 VRB3      30.17R
$$

...UNOFFICIAL OBSERVATIONS...

CITY           SKY/WX    TMP DP  RH WIND       PRES   REMARKS
COLBY KS       PTCLDY    72  64  78 NW10      29.99R
GOVE KS          N/A     78  32  18 MISG        N/A
LENORA KS        N/A     73  32  22 MISG        N/A
NORTON KS      CLEAR     70  63  78 W9        29.89S
SHARON SPRINGS   N/A     71  61  71 NW6         N/A
TRENTON NEB      N/A     67  32  27 NW7         N/A
KIT CARSON CO    N/A     65  58  78 MISG        N/A
YUMA CO          N/A     60  57  90 W5          N/A
$$



USA.gov is the U.S. government's official web portal to all federal, state and local government web resources and services.